Location: Plainartige
(45.6866°N, 1.7993°E)
Time: 21:00:40
(UTC+00:00)

DMSP B5D2-2 - Pass Details

Date: 03 March 2021
Orbit: 789 x 807 km, 98.3° (Epoch: 13 April)

Event Time Altitude Azimuth Distance (km) Brightness Sun altitude
Rises 19:47:25 0° 10° (N) 3,311 7.3 -22.5°
Reaches altitude 10° 19:49:47 10° 7° (N) 2,374 6.6 -22.9°
Maximum altitude 19:54:57 63° 288° (WNW) 886 4.5 -23.7°
Drops below altitude 10° 20:00:04 10° 208° (SSW) 2,349 6.6 -24.6°
Sets 20:02:23 0° 206° (SSW) 3,273 7.4 -25.0°
